Location: Big Spring State Park
(32.2296°N, 101.4897°W)
Time: 17:41:42
(UTC-05:00)

ISS - Visible Passes

Search period start: 21 April 2018 00:00
Search period end: 01 May 2018 00:00
Orbit: 403 x 406 km, 51.6° (Epoch: 22 April)

Date Brightness Start Highest point End Pass type
(mag) Time Alt. Az. Time Alt. Az. Time Alt. Az.
27 Apr -1.0 06:18:06 10° SSE 06:19:34 12° SE 06:21:00 10° E visible
29 Apr -2.5 06:08:09 10° SSW 06:11:09 35° SE 06:14:10 10° ENE visible
30 Apr -1.5 05:18:13 15° SE 05:18:58 16° SE 05:21:06 10° E visible
